Starlink 11416

operational
NORAD ID: 62594 Int'l Des: 2025-008 Owner: SPXS Country: US Constellation: starlink
LEOCIRCULAR

Über Starlink 11416

Beschreibung wird geladen...

Live-Position

3D-Globus wird geladen...

Nächste Überflüge

Höhenverlauf

Altitude vs Time

uPlot chart will show altitude changes over time

Zweizeiliger Elementsatz

1 62594U 25008H 26034.20152804 .00230543 00000-0 17481-2 0 9998
2 62594 42.9993 333.6983 0001158 265.8156 94.2579 15.70876078 61694
Epoch: 3. Feb. 2026 • Age: 12 hours

Aktueller Status

Höhe 365.2 km
Geschwindigkeit 7.69 km/s
Subsatellitenpunkt -35.22°S, 177.89°E
Startdatum 13. Jan. 2025
Alter 1 years
Typ internet

Technische Details

Klassifizierung Payload
Masse 960.00 kg
Trockenmasse 910.00 kg
Gesamtmasse 960.00 kg
Länge 0.30 m
Durchmesser 4.10 m
Spannweite 29.00 m
Form Box + pan
Hersteller SPXS
Bus-Typ Starlink V2MD
Phasenstatus In Orbit
Besitzer/Staat SPXS/US

Große Konstellationen

Loading constellations...